Regional Weather Roundup
Issued by NWS

Home | Current Version | Previous Version | Text Only | Print | Product List | Glossary On
Versions: 1 2 3 4 5 6 7 8 9 10 11 12 13 14 15 16 17 18 19 20 21 22 23 24 25 26 27 28 29 30 31 32 33 34 35 36 37 38 39 40 41 42 43 44 45 46 47 48 49 50
000
ASUS46 KPQR 032010
RWROR

OREGON REGIONAL WEATHER ROUNDUP
NATIONAL WEATHER SERVICE PORTLAND OR
100 PM PDT FRI JUL 03 2015

NOTE: "FAIR" INDICATES FEW OR NO CLOUDS BELOW 12,000 FEET WITH
NO SIGNIFICANT WEATHER AND/OR OBSTRUCTIONS TO VISIBILITY.

ORZ001>013-032100-
NORTHWEST OREGON


CITY           SKY/WX    TMP DP  RH WIND       PRES   REMARKS
ASTORIA        MOSUNNY   68  58  70 SW10      30.00F
NEWPORT        CLOUDY    63  55  77 N17G24    30.03F
PORTLAND       SUNNY     86  55  34 VRB6      29.92F
VANCOUVER WA   SUNNY     86  54  33 NW5       29.91F
SCAPPOOSE      SUNNY     85  60  42 E5        29.91F
HILLSBORO      SUNNY     91  51  25 VRB3      29.91F
AURORA         SUNNY     87  53  31 VRB3      29.93F
MCMINNVILLE    SUNNY     91  55  29 VRB3      29.92F
SALEM          SUNNY     91  48  22 VRB6      29.91F
CORVALLIS      SUNNY     91  54  27 NW6       29.94F
EUGENE         SUNNY     93  51  23 N9        29.93F HX  90
$$

ORZ021-028-032100-
SOUTHWEST OREGON


CITY           SKY/WX    TMP DP  RH WIND       PRES   REMARKS
NORTH BEND     MOSUNNY   63  59  88 N21G28    30.00F
BROOKINGS      MOSUNNY   66  60  81 SE3       29.98S
ROSEBURG       SUNNY     94  52  24 N13G18    29.91F HX  91
SEXTON SUMMIT  SUNNY     81  46  29 VRB5      30.10S
MEDFORD        PTSUNNY   95  44  17 NW7       29.91F HX  91
$$

ORZ014>016-041-032100-
COLUMBIA GORGE


CITY           SKY/WX    TMP DP  RH WIND       PRES   REMARKS
TROUTDALE      SUNNY     87  55  33 VRB3      29.90F
THE DALLES     SUNNY     95  52  23 NW24G31   29.79F HX  92
$$

ORZ029>031-041-044-049-050-061>064-502-503-505>511-032100-
EASTERN OREGON


CITY           SKY/WX    TMP DP  RH WIND       PRES   REMARKS
REDMOND        SUNNY     94  24   8 N7        29.98F
BEND             N/A    N/A N/A N/A MISG        N/A
PRINEVILLE     SUNNY     93  25   8 W9        29.99F
KLAMATH FALLS  MOSUNNY   91  43  18 VRB6      30.05F
LAKEVIEW       SUNNY     90  52  27 SE7       30.09F
HERMISTON      SUNNY     95  51  22 CALM      29.81F HX  92
PENDLETON      SUNNY     98  44  15 VRB7      29.85F HX  94
JOHN DAY       SUNNY     95  34  11 W14       30.00F HX  90
MEACHAM        SUNNY     89  41  18 VRB3      30.02F
LA GRANDE      SUNNY     95  43  16 CALM      29.93F HX  91
BAKER CITY     SUNNY     93  39  15 NW8       29.98F
BURNS          SUNNY     95  37  13 SW8       30.02F HX  90
ROME             N/A     98  31   9 NW7       29.99F HX  92
ONTARIO        SUNNY    100  43  14 S8        29.86F HX  96
$$


USA.gov is the U.S. government's official web portal to all federal, state and local government web resources and services.